Probability
0 0 0 0 0 0 0 0 0 0 0 0 0 0 0 0 0 0 0 0 0 0 0 0 0 0 0 0 0 0 0 0 0 0 0 0 0 0 0 0 0 0 0 0
0 0 0 0 0 0 0 0 0 0 0 0 0 0 0 0 0 0 0 0 0 0 0 0 0 0 0 0 0 0 0 0 0 0 0 0 0 0 0 0 0 0 0 0
0 0 0 0 0 0 0 0 0 0 0 0 0 0 0 0 0 0 0 0 0 0 0 0 0 0 0 0 0 0 0 0 0 0 0 0 0 0 0 0 0 0 0 0
0 0 0 0 0 0 0 0 0 0 0 0 0 0 0 0 0 0 0 0 0 0 0 0 0 0 0 0 0 0 0 0 0 0 0 0 0 0 0 0 0 0 0 0
0 0 0 0 0 0 0 0 0 0 0 0 0 0 0 0 0 0 0 0 0 0 0 0 0 0 0 0 0 0 0 0 0 0 0 0 0 0 0 0 0 0 0 0
0 0 0 0 0 0 0 0 0 0 0 0 0 0 0 0 0 0 0 0 0 0 0 0 0 0 0 0 0 0 0 0 0 0 0 0 0 0 0 0 0 0 0 0
0 0 0 0 0 0 0 0 0 0 0 0 0 0 0 0 0 0 0 0 0 0 0 0 0 0 0 0 0 0 0 0 0 0 0 0 0 0 0 0 0 0 0 0
0 0 0 0 0 0 0 0 0 0 0 0 0 0 0 0 0 0 0 0 0 0 0 0 0 0 0 0 0 0 0 0 0 0 0 0 0 0 0 0 0 0 0 0
0 0 0 0 0 0 0 0 0 0 0 0 0 0 0 0 0 0 0 0 0 0 0 0 0 0 0 0 0 0 0 0 0 0 0 0 0 0 0 0 0 0 0 0
0 0 0 0 0 0 0 0 0 0 0 0 0 0 0 0 0 0 0 0 0 0 0 0 0 0 0 0 0 0 0 0 0 0 0 0 0 0 0 0 0 0 0 0
0 0 0 0 0 0 0 0 0 0 0 0 0 0 0 0 0 0 0 0 0 0 0 0 0 0 0 0 0 0 0 0 0 0 0 0 0 0 0 0 0 0 0 0
0 0 0 0 0 0 0 0 0 0 0 0 0 0 0 0 0 0 0 0 0 0 0 0 0 0 0 0 0 0 0 0 0 0 0 0 0 0 0 0 0 0 0 0
0 0 0 0 0 0 0 0 0 0 0 0 0 0 0 0 0 0 0 0 0 0 0 0 0 0 0 0 0 0 0 0 0 0 0 0 0 0 0 0 0 0 0 0
0 0 0 0 0 0 0 0 0 0 0 0 0 0 0 0 0 0 0 0 0 0 0 0 0 0 0 0 0 0 0 0 0 0 0 0 0 0 0 0 0 0 0 0
0 0 0 0 0 0 0 0 0 0 0 0 0 0 0 0 0 0 0 0 0 0 0 0 0 0 0 0 0 0 0 0 0 0 0 0 0 0 0 0 0 0 0 0
0 0 0 0 0 0 0 0 0 0 0 0 0 0 0 0 0 0 0 0 0 0 0 0 0 0 0 0 0 0 0 0 0 0 0 0 0 0 0 0 0 0 0 0
0 0 0 0 0 0 0 0 0 0 0 0 0 0 0 0 0 0 0 0 0 0 0 0 0 0 0 0 0 0 0 0 0 0 0 0 0 0 0 0 0 0 0 0
0 0 0 0 0 0 0 0 0 0 0 0 0 0 0 0 0 0 0 0 0 0 0 0 0 0 0 0 0 0 0 0 0 0 0 0 0 0 0 0 0 0 0 0
0 0 0 0 0 0 0 0 0 0 0 0 0 0 0 0 0 0 0 0 0 0 0 0 0 0 0 0 0 0 0 0 0 0 0 0 0 0 0 0 0 0 0 0
0 0 0 0 0 0 0 0 0 0 0 0 0 0 0 0 0 0 0 0 0 0 0 0 0 0 0 0 0 0 0 0 0 0 0 0 0 0 0 0 0 0 0 0
0 0 0 0 0 0 0 0 0 0 0 0 0 0 0 0 0 0 0 0 0 0 0 0 0 0 0 0 0 0 0 0 0 0 0 0 0 0 0 0 0 0 0 0
0 0 0 0 0 0 0 0 0 0 0 0 0 0 0 0 0 0 0 0 0 0 0 0 0 0 0 0 0 0 0 0 0 0 0 0 0 0 0 0 0 0 0 0
0 0 0 0 0 0 0 0 0 0 0 0 0 0 0 0 0 0 0 0 0 0 0 0 0 0 0 0 0 0 0 0 0 0 0 0 0 0 0 0 0 0 0 0
0 0 0 0 0 0 0 0 0 0 0 0 0 0 0 0 0 0 0 0 0 0 0 0 0 0 0 0 0 0 0 0 0 0 0 0 0 0 0 0 0 0 0 0
0 0 0 0 0 0 0 0 0 0 0 0 0 0 0 0 0 0 0 0 0 0 0 0 0 0 0 0 0 0 0 0 0 0 0 0 0 0 0 0 0 0 0 0
0 0 0 0 0 0 0 0 0 0 0 0 0 0 0 0 0 0 0 0 0 0 0 0 0 0 0 0 0 0 0 0 0 0 0 0 0 0 0 0 0 0 0 0
Wind_Speed
7 5 8 10 12 12 9 11 13 12 10 10 10 9 7 8 12 12 10 6 3 10 13 15 17 16 15 15 13 11 8 5 4 3 2 1 1 1 1 1 2 3 5 6
5 10 13 10 8 7 7 10 13 11 8 6 8 10 10 12 14 13 8 1 7 11 14 16 17 16 15 14 14 14 13 10 6 3 2 2 1 1 1 1 2 3 4 5
11 5 2 5 7 9 10 10 10 10 8 6 9 9 10 8 10 3 3 9 13 14 15 15 15 14 14 14 14 13 14 13 11 8 3 3 3 2 3 3 2 3 4 5
9 5 3 5 8 8 10 5 5 5 4 4 3 7 6 10 4 4 8 13 14 15 15 14 14 14 14 12 11 12 13 13 12 10 8 6 3 2 3 2 2 3 5 5
5 5 3 5 6 5 4 2 2 5 6 6 6 8 8 6 6 9 12 14 14 13 13 12 12 11 11 10 10 10 11 12 12 11 11 9 7 5 4 5 5 4 3 5
6 1 3 3 2 2 2 2 6 7 2 6 7 8 5 2 9 11 11 12 11 11 10 9 8 8 8 8 8 9 10 11 11 11 10 9 9 8 8 7 6 5 4 3
7 7 4 1 2 2 2 1 3 2 4 7 2 2 3 5 10 14 14 12 10 9 8 7 7 7 7 7 7 8 9 10 10 9 9 8 8 8 7 7 7 7 5 4
3 4 8 6 5 2 5 4 4 4 5 4 4 5 3 7 11 14 13 11 9 8 6 6 6 5 5 5 6 7 8 7 8 8 7 7 7 6 5 6 6 7 5 5
3 1 4 3 1 0 2 3 1 1 3 5 7 5 3 7 11 11 10 9 7 6 5 5 5 5 5 5 5 6 6 5 6 6 6 6 7 7 7 7 6 6 6 7
1 4 1 3 1 2 1 1 3 3 4 7 7 7 4 7 9 9 7 6 5 4 4 4 4 4 4 4 4 4 4 4 4 5 5 5 5 6 6 6 7 7 8 8
1 3 2 2 6 6 5 4 5 5 5 5 5 6 3 8 9 8 6 5 3 3 3 3 3 3 3 3 4 4 4 4 4 4 5 5 5 5 5 5 6 6 7 8
2 2 5 7 6 4 6 8 8 7 8 6 6 7 6 8 7 6 4 3 2 1 1 2 2 2 3 3 4 4 4 4 4 4 5 5 5 5 5 5 6 6 7 7
3 4 3 6 4 0 1 2 2 2 3 6 9 7 2 4 4 4 3 2 1 0 1 1 1 2 2 3 3 4 4 4 4 5 5 6 6 6 6 6 6 7 7 8
2 4 7 8 4 2 4 6 5 4 5 7 10 11 8 6 5 2 2 2 1 1 2 2 2 2 3 3 4 5 5 5 5 5 6 7 7 7 7 7 8 8 8 8
1 4 6 10 11 9 10 13 11 11 11 12 14 16 15 7 1 2 3 3 2 3 3 3 3 3 4 5 5 5 5 6 6 6 7 8 8 8 8 9 9 9 9 10
1 2 1 6 7 8 14 18 15 14 15 16 17 19 5 4 4 3 3 3 4 4 4 4 4 5 5 5 5 6 6 6 5 6 8 8 9 10 10 11 11 11 11 10
3 3 2 5 3 4 14 15 15 13 12 12 13 6 3 2 2 2 3 4 5 6 5 6 6 5 6 5 6 6 6 6 7 8 9 9 10 11 12 12 12 13 12 12
5 5 4 3 1 11 12 2 3 4 6 3 0 2 2 1 1 2 4 6 5 5 6 6 6 6 6 6 6 6 7 7 8 9 10 10 10 12 13 13 14 14 12 13
7 7 5 4 6 10 9 4 3 3 6 2 2 3 2 1 4 5 4 3 4 6 6 6 6 6 6 6 6 7 8 8 9 11 11 11 10 11 12 13 15 14 13 14
4 6 5 6 6 10 6 2 4 3 6 4 4 4 2 2 4 6 5 6 7 6 5 5 6 7 7 7 8 9 11 10 11 11 12 12 11 11 13 14 15 13 13 15
4 5 9 9 8 10 6 5 6 4 8 4 5 4 5 5 7 7 7 7 6 5 5 6 7 7 7 8 10 11 12 11 11 12 13 14 13 13 15 15 14 14 15 16
9 8 8 7 8 10 5 7 8 8 3 5 5 5 6 7 8 7 6 6 5 6 6 7 8 9 9 9 10 13 13 13 13 14 14 14 14 14 14 15 16 15 15 17
8 10 7 10 10 6 8 8 8 5 4 6 6 6 6 6 7 6 5 5 5 6 7 7 8 11 10 8 9 12 15 15 14 13 13 14 14 13 13 14 16 15 14 14
6 6 5 5 7 7 6 7 7 7 8 7 6 4 4 5 5 5 5 6 6 7 7 7 9 12 12 9 10 10 14 14 12 14 15 14 14 14 13 12 13 13 13 14
8 6 7 9 10 9 10 11 10 9 6 4 3 2 2 3 4 4 4 5 6 8 8 8 10 12 13 12 12 11 12 12 13 15 15 15 14 14 13 13 12 15 14 16
12 12 10 10 9 8 8 8 7 6 5 5 4 3 2 1 3 3 4 4 6 8 8 10 11 12 13 13 14 11 9 10 13 15 14 13 13 13 13 14 14 22 25 31
Wind_Direction
181 210 215 220 221 239 276 288 287 287 291 285 276 278 291 286 278 275 276 287 50 71 65 56 49 41 37 32 31 34 42 67 92 93 102 121 267 276 259 225 218 208 195 192
168 228 237 249 265 279 284 285 284 285 286 301 296 285 274 261 260 263 272 7 80 77 64 55 49 42 37 33 31 34 30 32 41 71 103 97 64 343 308 265 231 227 216 201
222 237 271 248 255 259 259 261 274 289 316 296 283 275 253 258 244 251 67 74 75 73 66 56 49 42 36 32 29 36 33 29 23 22 44 49 40 13 347 321 289 246 233 224
245 258 289 248 250 254 270 278 303 312 315 281 297 292 249 259 236 103 77 75 72 67 64 56 49 42 36 27 24 34 36 30 22 20 25 21 14 340 301 290 278 257 231 229
241 164 177 231 248 243 259 39 318 278 266 270 251 259 265 220 119 98 84 79 74 69 65 58 50 45 37 26 24 28 35 33 25 24 25 24 16 358 344 340 326 311 272 238
264 129 206 237 54 40 1 323 264 240 237 263 234 229 287 107 129 116 98 86 79 74 69 63 56 49 40 29 25 28 32 31 24 23 23 23 14 1 355 349 338 328 313 287
231 200 194 165 192 164 172 210 303 284 208 230 22 277 274 75 110 122 113 98 85 77 71 62 51 46 42 31 27 31 33 30 22 18 17 16 11 3 358 350 340 335 328 321
265 221 169 181 209 186 183 198 204 241 256 297 350 256 263 100 93 96 97 95 87 80 76 73 65 56 50 40 32 33 32 28 20 14 7 8 7 4 355 349 340 333 328 321
261 245 105 134 142 6 194 204 200 225 288 282 253 232 137 112 106 103 100 94 87 83 79 74 68 57 47 40 37 37 32 25 19 9 360 1 2 358 348 341 336 331 329 326
275 276 246 123 142 209 242 19 78 163 230 245 256 254 237 150 134 116 103 96 87 75 68 65 56 47 41 37 31 35 33 24 11 3 357 355 350 345 337 333 330 328 327 325
181 240 256 182 201 211 187 190 206 217 220 231 256 261 74 116 132 127 118 109 96 74 59 54 50 42 34 26 21 16 12 7 357 350 343 337 330 326 324 321 321 322 320 321
167 207 257 253 252 252 243 233 222 229 235 230 247 259 71 95 108 124 137 136 124 93 53 37 26 23 16 8 359 352 346 342 336 329 320 313 308 307 308 306 308 309 309 310
159 170 260 295 253 184 305 310 289 289 275 249 254 259 91 119 141 155 156 145 119 69 353 337 335 344 341 334 323 317 313 311 310 311 309 306 303 302 299 297 298 299 298 298
113 193 203 223 242 330 290 271 250 238 250 257 251 270 274 270 274 237 136 101 58 341 321 316 316 316 307 296 288 287 287 290 293 293 293 293 293 293 292 293 290 288 287 287
121 234 246 264 280 296 286 275 266 255 253 259 269 274 279 290 306 77 67 42 1 325 315 315 309 293 285 284 283 281 281 281 281 283 284 284 288 289 288 285 283 281 277 275
141 241 313 276 271 280 274 266 264 263 260 261 266 269 286 91 75 60 33 359 327 313 308 303 296 291 285 283 282 282 282 284 287 283 278 281 285 286 284 283 283 283 281 278
158 158 188 262 285 293 260 248 247 244 242 250 260 266 96 91 60 32 350 315 298 298 302 302 298 295 293 290 291 290 287 290 286 279 278 279 282 284 285 287 286 284 283 282
179 171 196 248 101 233 241 229 225 254 267 273 311 155 159 145 339 313 287 281 291 305 307 304 302 299 296 295 295 293 291 288 284 281 279 279 280 282 286 287 286 288 289 286
199 178 189 198 230 262 272 243 195 221 263 233 203 194 176 345 323 293 283 311 316 306 301 298 297 298 303 308 312 311 302 296 291 288 287 289 289 288 289 286 286 286 286 284
197 195 196 205 218 235 236 113 84 66 271 225 170 175 207 301 290 280 306 310 300 295 298 306 315 320 323 327 331 317 306 303 301 305 308 309 308 305 300 296 295 294 291 286
157 188 210 221 233 249 235 151 117 183 245 179 161 193 225 242 243 267 289 291 294 304 324 339 336 327 324 331 330 315 310 311 321 327 324 322 321 315 306 302 298 296 292 290
173 183 199 196 217 244 182 147 187 214 176 186 214 231 245 256 267 278 289 299 320 333 340 344 331 320 327 336 331 317 314 320 325 324 320 316 312 307 304 300 297 293 290 287
203 199 193 194 209 217 175 191 211 211 226 242 249 258 257 266 275 287 299 315 329 335 334 338 331 318 320 334 333 317 317 322 321 318 310 304 300 297 294 292 292 291 286 283
228 223 225 242 243 242 231 232 234 235 242 251 251 253 257 266 282 296 306 316 324 328 330 334 327 315 315 327 327 320 319 321 316 308 305 302 300 296 292 288 287 285 284 283
220 208 215 230 242 255 252 248 248 249 246 240 226 208 227 258 276 292 302 310 316 319 326 324 317 311 312 318 317 317 316 314 308 305 302 301 297 294 293 288 282 283 275 275
230 230 227 233 228 225 237 232 224 223 224 213 204 213 191 208 277 305 301 315 319 316 319 314 310 308 310 312 310 310 308 305 303 304 302 300 298 296 293 292 290 286 286 288